Disclaimer

Please do not use the information listed here in-flight or in-navigation, as they are not provided to us by the airports but are provided by volunteers, so they might be outdated.

Search


Regions


Airport information page

Radio informations:
LONDON RDO - 126.7 MHz
Ground (GND) - 121.7 MHz
VFR ADVSY - 134.3 MHz
DETROIT APP/DEP - 126.85 MHz

Airport informations:
Latitude: 42° 16' 32.00" N
Longitude: 082° 57' 20.00" W
Elevation: 622 feet - 190 meters
Operating hours: 24 hour operations
Operating agency: Private
Timezone: UTC-5(-4DT) - Second Sunday in March at 0200 to first Sunday in November at 0200 local time (Exception Arizona and that portion of Indiana in the Eastern Time Zone)
Fuel: Jet A1, without icing nhibitor.

80/87 octane gasoline, leaded, MIL-L-5572F (RED)

100/130 MIL Spec, low lead, aviation gasoline (BLUE)

Runway information:
07/25 - 9000 x 200 feet< - >2743 x 61 meters
12/30 - 5150 x 150 feet< - >1570 x 46 meters

Recent METARs:
CYQG 200551Z AUTO 01023G34KT 5SM -SN OVC015 M08/M11 A2987 RMK SLP128
CYQG 200632Z AUTO 35015G30KT 2SM -SN OVC017 M09/M11 A2985 RMK VIS VRB 1 1/4-3 SLP121
CYQG 200640Z AUTO 35019G30KT 3SM -SN OVC019 M09/M12 A2984 RMK SLP118

Airport on the map: